Home   Weather   Bujumbura   Past weeks
Flag for Burundi

Past Weather in Bujumbura, Burundi — Yesterday and Last 2 Weeks

Now
77 °F

Partly sunny.


Feels Like: 79 °F
Forecast: 77 / 70 °F
Wind: No wind

Location: Kigoma Airport

Current Time: Oct 19, 2019 at 6:03:52 pm

Latest Report: Oct 19, 2019 at 5:00 pm


Visibility: N/A

Pressure: 29.92 "Hg (27.32 "Hg at 794m altitude)

Humidity: 74%

Dew Point: 68 °F

Location of BujumburaLocation

Past Weather in Bujumbura — Graph

°F

Bujumbura Temperature Yesterday

Maximum temperature yesterday: 79 °F (at 2:00 pm)
Minimum temperature yesterday: 70 °F (at 10:00 am)
Average temperature yesterday: 74 °F

High & Low Weather Summary for the Past Weeks

 TemperatureHumidityPressure
High91 °F (Oct 8, 12:00 pm)100% (Oct 19, 2:00 am)30.12 "Hg (Oct 19, 2:00 am)
Low68 °F (Oct 5, 6:00 am)28% (Oct 16, 12:00 pm)29.83 "Hg (Oct 10, 4:00 pm)
Average78 °F67%29.98 "Hg
* Reported Oct 4 9:00 pm — Oct 19 4:00 pm, Bujumbura. Weather by CustomWeather, © 2019

Note: Actual official high and low records may vary slightly from our data, if they occured in-between our weather recording intervals... More about our weather records

Advertising

Bujumbura Weather History for the Previous 24 Hours

Scroll right to see more
 ConditionsComfort  
Time TempWeatherWind HumidityBarometerVisibility
4:00 pm
Sat, Oct 19
75 °FRain. Partly sunny.9 mph78%29.95 "HgN/A
3:00 pm79 °FPartly sunny.9 mph65%29.95 "HgN/A
2:00 pm81 °FPartly sunny.6 mph70%29.98 "HgN/A
1:00 pm81 °FPartly sunny.9 mph66%29.98 "HgN/A
12:00 pm81 °FPartly sunny.12 mph70%30.04 "HgN/A
11:00 am81 °FBroken clouds.6 mph66%30.04 "HgN/A
10:00 am81 °FScattered clouds.8 mph66%30.07 "HgN/A
9:00 am81 °FScattered clouds.No wind62%30.07 "HgN/A
8:00 am77 °FPassing clouds.5 mph69%30.04 "HgN/A
7:00 am72 °FPartly sunny.No wind83%30.04 "HgN/A
6:00 am68 °FPartly sunny.No wind94%30.01 "HgN/A
5:00 am68 °FPassing clouds.No wind100%30.01 "HgN/A
3:00 am70 °FPassing clouds.No wind94%30.01 "HgN/A
2:00 am70 °FPassing clouds.No wind100%30.01 "HgN/A
1:00 am70 °FPassing clouds.No wind94%30.04 "HgN/A
11:00 pm
Fri, Oct 18
70 °FPassing clouds.5 mph94%30.04 "HgN/A
10:00 pm72 °FPassing clouds.3 mph83%30.07 "HgN/A
9:00 pm72 °FPassing clouds.7 mph88%30.04 "HgN/A
8:00 pm73 °FPassing clouds.3 mph83%30.01 "HgN/A
7:00 pm73 °FPassing clouds.No wind83%30.01 "HgN/A
6:00 pm77 °FPassing clouds.6 mph69%30.01 "HgN/A
Weather by CustomWeather, © 2019

See weather overview